Tracking 22458 objects as of 3-Mar-2021
HD Live streaming from Space Station
objects crossing your sky now

ARIANE 5 DEB

Track ARIANE 5 DEB now!


NORAD ID: 43384
Int'l Code: 2008-030G
Perigee: 403.9 km
Apogee: 35,434.9 km
Inclination: 2.2 °
Period: 627.9 minutes
Semi major axis: 24290 km
RCS: Unknown
Launch date: June 12, 2008
Source: France (FR)
Launch site: FRENCH GUIANA (FRGUI)

Note: This is SATELLITE DEBRIS
aabbcc
Your satellite tracking list
Your tracking list is empty




NASA's NSSDC Master Catalog

Two Line Element Set (TLE):
1 43384U 08030G   21061.29401926 -.00000075  00000-0 -29158-4 0  9999
2 43384   2.2430 353.5074 7210878 298.9800   8.4294  2.29325005101716
Source of the keplerian elements: AFSPC